Theta_e
305 306 306 306 306 305 304 305 305 305 305 305 306 306 307 308 309 314 317 314 310 308 313 317 319 315 313 311 314 317 319 321 321 322 323 323 325 325 326 326 325 324 324 339 348
306 306 306 305 305 305 306 306 306 306 306 306 306 308 309 310 311 318 315 309 308 308 312 317 315 314 315 314 313 315 318 318 320 321 321 322 323 323 325 325 324 324 324 329 339
306 306 306 306 305 306 307 308 308 308 308 307 307 310 310 310 320 316 310 310 310 310 315 316 315 314 314 315 315 314 316 317 318 318 319 320 320 320 322 324 324 323 323 323 327
305 307 307 306 307 308 309 310 310 309 308 309 311 311 310 314 320 317 311 310 309 310 316 315 314 315 316 316 316 315 314 314 315 316 317 318 318 318 321 323 324 324 323 322 323
307 305 307 307 308 309 309 309 309 308 309 311 311 310 310 321 318 314 311 312 314 315 314 314 315 316 317 317 316 316 316 316 315 315 314 315 316 317 319 322 323 323 323 323 323
311 305 307 307 308 309 309 308 308 309 309 308 311 310 315 322 314 315 315 315 314 315 315 315 315 315 315 316 317 316 316 316 315 315 315 315 315 315 317 320 322 321 322 323 323
312 310 304 308 308 309 309 308 309 311 309 310 310 310 318 318 314 314 314 314 315 315 315 315 315 315 315 316 316 316 317 317 317 316 316 315 315 315 315 317 320 320 320 322 323
311 311 307 306 308 308 308 308 311 312 310 311 310 311 318 316 314 314 315 314 315 316 316 316 314 314 315 315 316 316 316 316 316 316 316 315 314 315 315 315 316 317 318 320 322
309 308 306 304 308 309 308 308 313 313 312 314 317 318 318 316 315 315 314 314 314 315 316 316 315 315 315 316 317 317 318 318 317 317 317 315 314 316 315 316 316 316 317 318 320
309 305 305 305 309 309 308 313 315 315 316 317 318 317 318 317 316 315 314 314 315 315 316 317 317 318 318 318 318 318 318 318 318 319 317 316 315 316 315 316 316 317 317 316 318
309 304 306 308 309 308 312 316 314 319 318 314 314 316 314 314 315 314 314 315 315 315 317 317 318 319 319 319 318 319 320 319 319 318 318 317 317 317 317 316 316 317 317 317 317
310 305 307 308 311 312 315 316 313 313 314 316 316 315 315 315 315 315 316 316 316 318 318 319 319 319 318 319 319 319 319 319 318 318 319 318 319 317 317 317 316 317 317 319 318
311 305 307 308 313 314 315 315 313 314 316 318 314 314 315 314 315 316 316 316 316 317 317 317 318 318 318 318 320 320 320 320 319 319 319 318 319 320 317 318 317 316 317 318 319
311 305 306 307 313 315 313 312 313 314 321 317 315 316 315 316 317 317 316 316 316 316 317 318 318 318 318 318 318 318 318 319 320 319 320 320 322 320 319 319 320 318 316 317 318
311 305 306 311 313 315 310 313 315 318 328 316 316 315 316 317 317 317 317 316 317 317 316 318 317 317 318 318 318 319 318 319 321 321 321 322 320 320 319 320 320 320 317 317 317
314 305 306 313 313 312 310 315 319 325 320 316 315 315 316 317 317 316 317 316 317 318 318 318 317 318 318 318 318 318 318 319 320 321 325 320 320 321 320 321 319 321 319 317 317
314 306 310 312 311 310 312 317 322 323 316 315 314 314 316 318 317 317 317 318 319 322 321 321 319 318 319 320 320 320 321 326 326 326 324 318 319 321 320 320 321 320 318 318 317
314 313 313 311 310 310 314 320 323 317 316 314 314 315 316 316 316 316 317 318 318 319 322 322 322 319 319 318 321 321 322 322 323 325 322 318 324 321 321 321 320 319 318 319 318
315 316 317 312 310 312 318 320 317 314 313 313 314 315 316 315 315 316 316 318 319 319 321 322 319 317 315 315 315 318 322 319 320 320 324 319 318 321 319 320 320 319 318 319 319
316 316 318 312 312 316 320 316 316 313 311 313 316 314 315 315 316 315 316 315 315 317 316 316 317 315 314 315 315 317 317 323 320 321 320 319 320 318 319 320 319 320 320 318 319
317 318 314 314 314 316 318 316 314 313 312 313 313 315 315 315 314 317 316 315 316 316 314 315 313 316 314 315 316 318 320 320 319 320 322 320 317 318 319 319 318 319 320 318 318
317 319 316 314 318 317 316 315 314 314 313 313 313 315 315 315 318 317 317 316 315 314 315 313 313 317 315 315 316 316 320 319 322 317 319 320 321 318 318 317 317 319 319 319 317
316 318 317 316 318 317 317 316 315 315 314 313 313 314 315 316 318 316 316 315 315 315 313 311 314 318 317 319 320 319 318 319 320 320 324 323 321 318 317 317 317 318 318 320 318
317 321 319 317 317 318 317 317 315 313 312 312 312 313 315 315 314 317 316 316 315 314 314 311 312 315 318 317 318 319 320 319 319 320 322 322 320 318 318 317 317 317 318 320 320
319 319 318 320 319 319 317 317 316 313 312 311 313 314 314 317 317 316 315 316 317 315 312 312 315 315 315 316 318 319 320 319 320 320 324 321 318 318 317 319 319 317 318 320 333
317 317 316 316 316 320 320 318 315 314 312 312 312 314 315 317 318 317 316 318 318 313 312 312 316 314 316 317 320 323 317 314 315 315 315 318 321 318 316 317 319 318 319 322 331
316 315 315 317 318 320 321 316 315 313 312 311 313 314 316 316 314 314 316 317 317 315 314 313 315 316 318 318 321 321 311 311 311 310 311 315 315 312 314 317 319 320 322 326 334
Wind_Speed
22 22 21 20 18 16 15 14 14 13 13 13 14 14 15 15 15 10 7 5 11 6 6 11 10 8 11 18 19 22 16 19 27 27 25 30 25 31 33 20 19 21 25 7 16
23 22 20 18 15 13 13 13 14 13 13 13 13 12 13 14 7 6 5 8 10 11 7 10 10 12 13 15 20 19 17 26 23 24 24 28 29 35 30 16 14 19 27 17 17
23 19 19 16 14 12 12 13 14 14 14 13 11 12 10 8 8 5 6 10 8 8 10 12 12 13 16 17 19 21 20 22 26 31 32 30 31 37 28 25 16 20 28 32 18
23 19 18 16 13 12 13 14 14 16 13 12 12 10 5 3 3 3 8 4 4 5 8 9 10 14 14 15 17 18 21 24 27 28 29 25 33 32 33 28 20 18 23 27 28
24 20 17 14 12 12 13 15 16 18 13 13 11 6 4 6 2 4 5 5 7 7 8 9 11 13 14 15 17 16 16 19 19 21 25 28 27 29 34 33 25 21 24 18 24
24 21 16 13 12 12 13 16 19 16 10 13 9 6 3 11 1 3 4 5 8 8 11 10 13 14 12 16 15 20 22 22 23 17 19 20 24 29 36 32 27 26 30 24 25
27 22 19 13 12 12 14 16 17 17 10 11 12 6 8 11 2 3 8 9 10 11 13 12 13 12 16 17 19 17 17 17 20 19 20 24 22 25 34 35 32 32 34 30 31
30 24 20 14 12 13 14 18 13 15 10 12 9 4 9 4 3 9 7 12 13 14 13 14 14 17 17 19 21 20 20 18 18 21 25 24 24 22 29 34 36 37 40 38 31
33 27 21 13 11 15 15 18 15 12 7 9 2 3 12 4 9 5 9 14 12 14 14 12 13 17 18 16 16 18 19 22 23 22 17 17 26 22 25 30 33 40 41 42 33
34 27 20 11 10 14 16 15 16 8 4 10 8 7 13 11 8 13 17 21 17 14 16 19 18 14 15 14 15 19 17 20 19 18 10 17 20 19 27 27 28 35 38 44 41
34 25 16 10 12 13 12 12 13 1 5 19 14 17 20 12 10 15 17 13 16 13 15 20 15 15 21 18 21 21 23 25 24 24 20 18 19 20 25 23 23 29 36 41 46
34 21 13 12 10 9 11 9 13 14 17 14 9 10 11 11 13 17 17 9 12 14 17 16 20 22 23 22 22 23 25 26 26 23 23 21 28 22 17 21 26 30 32 29 39
34 18 12 11 8 10 8 11 15 14 9 7 5 7 6 9 17 26 5 13 17 18 20 21 24 23 22 21 20 22 24 24 25 24 27 24 27 25 22 25 33 30 35 34 33
34 16 11 13 10 11 12 17 15 8 5 4 6 2 9 16 17 9 10 11 17 21 21 21 21 23 23 25 21 25 22 21 24 22 18 18 19 21 23 20 21 33 32 36 35
34 16 10 12 14 11 18 16 11 1 3 8 5 6 13 20 16 16 20 10 14 19 19 24 25 26 27 27 24 26 23 16 17 20 17 25 14 23 17 24 25 20 31 36 39
34 16 11 9 14 15 18 13 8 6 4 9 18 21 20 23 15 24 21 19 23 19 20 26 33 24 24 27 26 25 24 21 15 13 15 20 16 23 21 25 21 26 31 41 41
33 12 12 8 13 19 14 11 6 5 19 14 24 24 21 18 18 20 22 21 16 15 16 21 22 25 11 21 25 14 14 4 9 9 16 13 17 20 23 23 30 20 30 43 45
33 10 5 11 17 15 10 10 11 19 17 20 21 24 18 24 22 21 26 22 16 11 8 11 11 10 9 10 5 7 8 6 6 4 8 18 7 13 22 25 29 26 36 34 47
31 8 7 8 15 9 11 5 8 13 15 19 23 15 19 23 20 24 24 15 9 13 6 7 7 26 29 18 15 4 7 2 6 11 14 18 23 14 22 18 19 20 11 32 36
24 7 4 15 12 9 10 3 8 13 15 16 16 16 24 22 20 19 15 13 23 8 7 4 14 16 21 19 18 14 9 5 4 6 16 13 17 12 12 9 13 18 15 27 19
15 10 3 20 13 17 7 12 16 16 16 11 21 21 20 18 21 20 10 17 7 12 13 10 7 13 17 9 16 4 5 8 8 8 7 13 10 6 8 8 2 19 27 23 25
13 8 13 19 8 12 10 18 21 11 15 14 15 16 18 23 15 19 10 18 16 3 6 5 4 8 20 27 22 18 15 15 6 9 12 13 13 12 7 8 5 16 25 18 27
15 19 10 16 7 8 16 16 16 15 13 15 12 18 22 19 15 10 21 25 24 6 4 5 4 7 12 0 6 6 11 16 10 8 18 13 11 7 4 9 12 14 21 27 29
9 8 21 19 21 17 17 16 18 20 16 16 18 21 20 22 22 23 26 8 20 5 13 8 4 9 14 22 20 20 14 16 18 10 18 18 21 20 18 12 16 16 23 29 27
8 10 13 9 15 18 17 19 17 19 21 23 14 19 23 21 24 24 28 28 21 8 3 3 7 15 22 24 25 26 25 23 21 21 18 18 21 15 14 11 15 18 26 22 19
12 16 14 24 23 22 16 16 21 21 21 17 18 22 21 21 23 29 30 25 12 4 3 3 5 16 24 25 17 19 4 10 10 16 14 17 21 11 14 17 25 27 17 20 21
15 14 12 14 15 14 15 19 21 24 14 25 21 21 22 23 34 39 38 34 8 5 3 2 4 5 9 19 24 2 7 11 11 15 9 10 17 16 18 20 22 20 18 13 33
Wind_Direction
352 345 341 339 338 340 347 352 352 350 344 338 333 328 323 321 320 327 308 287 304 295 359 353 277 276 266 255 254 243 251 252 253 257 268 275 276 274 275 265 211 245 258 136 118
357 355 358 359 359 359 2 0 356 349 342 334 326 324 321 321 325 315 265 295 301 302 315 339 315 306 280 255 247 245 244 252 258 269 281 285 283 286 279 259 216 244 257 233 156
0 0 1 1 3 5 3 359 354 343 336 331 325 323 321 320 316 139 324 298 303 306 310 303 293 284 277 272 252 240 251 265 267 278 286 296 300 300 300 283 200 229 243 254 194
1 357 357 359 3 1 359 356 351 347 340 335 331 326 320 310 360 196 329 328 327 355 328 303 290 280 274 274 264 245 257 267 275 275 281 285 293 294 289 276 300 250 232 252 248
357 354 351 355 356 354 352 353 349 349 340 339 334 325 302 272 261 261 318 314 358 319 303 303 299 288 283 285 284 275 276 279 281 280 278 276 272 277 283 286 296 301 293 272 260
355 350 343 343 344 345 345 345 345 340 326 353 331 310 309 270 63 300 354 306 304 303 293 292 298 314 307 279 281 289 296 289 289 285 278 277 279 269 270 278 283 288 289 278 279
354 347 340 329 332 334 339 341 342 345 333 308 332 284 278 271 243 277 283 290 295 290 289 286 291 288 296 299 283 291 281 278 265 262 261 264 264 264 266 262 269 270 274 270 269
353 347 337 322 326 330 331 337 338 343 349 320 311 250 271 230 244 277 289 296 293 273 269 282 285 286 280 282 284 278 272 271 268 253 244 233 258 253 252 260 260 260 268 269 255
353 348 340 328 326 333 329 331 327 328 357 360 57 252 283 234 271 266 287 301 291 296 266 270 276 275 283 276 269 255 253 252 257 245 245 243 241 242 248 245 244 246 252 261 260
352 349 345 341 336 336 337 326 323 318 297 328 274 264 251 261 303 292 289 286 299 289 277 246 243 246 247 245 257 272 283 286 284 292 293 258 258 253 252 256 250 240 237 237 252
353 351 352 351 346 344 359 330 347 321 274 289 274 260 295 286 283 292 291 299 295 263 262 262 235 240 256 265 277 274 272 277 281 288 278 260 256 267 276 243 258 244 236 237 229
354 353 357 354 0 356 352 340 352 316 309 284 265 274 279 279 287 291 308 301 273 258 262 261 251 256 261 249 261 276 279 276 278 280 278 272 281 257 255 283 249 271 247 254 219
353 352 354 352 345 339 337 343 333 322 286 268 261 284 317 306 280 297 301 289 279 281 285 278 282 291 283 268 255 253 259 271 277 282 279 278 264 263 253 257 258 243 264 262 231
354 352 354 356 351 336 345 333 330 318 274 139 173 88 305 295 291 286 296 286 295 283 287 282 293 284 273 271 272 276 267 273 295 269 265 266 273 264 271 263 244 248 242 254 265
355 350 0 5 358 350 335 330 325 313 269 12 337 296 293 307 298 337 326 247 264 279 286 280 284 280 275 274 280 277 290 274 283 272 277 257 265 271 247 250 252 255 226 243 251
352 345 356 354 335 326 327 324 318 243 337 343 357 336 331 303 347 345 333 312 294 290 285 285 276 268 265 260 256 267 264 264 256 269 260 255 248 263 256 256 249 242 220 223 233
348 345 9 20 335 329 324 318 265 269 357 6 336 337 312 306 345 346 338 328 296 292 281 296 297 286 300 297 252 337 283 267 231 216 248 270 249 246 260 251 249 228 239 214 215
348 358 1 11 323 322 322 282 277 353 339 340 335 317 315 355 348 340 341 326 342 331 303 280 303 1 1 21 348 304 268 226 283 248 293 287 259 282 265 245 261 252 228 218 203
347 346 347 340 329 322 304 331 346 331 335 335 329 321 341 326 350 348 339 324 347 26 336 313 273 327 306 300 277 248 236 300 285 276 272 261 266 238 271 270 250 252 242 257 202
344 345 266 337 323 322 290 280 319 353 340 338 326 326 319 343 340 338 328 312 331 70 11 286 289 285 291 292 270 246 255 216 196 258 264 256 273 257 231 210 343 321 215 251 253
356 311 11 346 321 291 309 356 335 341 343 325 321 317 318 326 329 320 304 302 335 329 330 302 225 281 302 247 263 228 218 211 252 244 269 286 287 23 349 32 310 299 310 223 243
351 331 346 348 334 360 352 332 317 311 315 321 316 313 318 317 322 318 280 297 320 269 266 262 277 277 286 281 271 272 232 231 227 247 240 256 271 279 300 301 301 288 290 278 228
326 313 5 345 350 327 335 329 325 324 321 331 315 312 305 313 308 279 287 303 297 322 241 195 236 299 297 297 45 273 240 230 243 258 257 261 261 303 231 288 269 267 282 277 230
310 321 341 331 351 341 334 316 319 333 338 327 313 314 313 326 314 302 316 304 302 217 273 163 235 231 266 282 303 291 264 262 243 252 263 248 268 265 267 273 267 245 262 267 277
335 349 360 318 323 316 298 307 322 332 330 324 325 320 319 310 307 321 315 316 329 94 125 236 262 274 274 270 271 273 279 273 257 246 254 272 255 256 281 324 293 254 256 282 147
351 338 322 306 322 308 315 346 327 323 324 325 321 313 309 314 333 321 315 305 311 157 261 223 273 296 290 285 272 265 25 1 348 318 306 301 285 326 343 307 287 262 272 271 172
335 325 311 296 329 323 329 321 322 329 325 318 308 312 324 337 322 306 289 279 257 163 238 240 291 297 281 310 308 89 50 5 310 294 288 272 294 320 290 262 254 250 244 228 158